M I D A S
Marine Information and Data Acquisition System
Tripno 1831 of the Zeeleeuw from 2009-12-11 07:23:24 to 2009-12-11 15:23:04
Back to CruiseResearch ActivitiesStationsMapUnderway DataData graphs

EquipmentUnitsComments
TimeDGPSUTC
LatitudeDGPSDM.mWGS84
LongitudeDGPSDM.mWGS84
SpeedMeteo Stationm/sRelative wind speed
DirectionMeteo StationdegRelative wind direction
TemperatureMeteo Stationdeg CelciusAir temperature
PressureMeteo StationPaAtmospheric pressure
HumidityMeteo Station%Relative humidity
Missing or incorrect values are displayed as -999
Metereological data collected by the RV Zeeleeuw from 2009-12-11 07:21:24 to 2009-12-11 16:03:35
                                                                                    Next 1000 lines
Time Latitude Longitude Speed Direction Temperature Pressure Humidity
2009-12-11 07:21:34 51°13.662 2°55.955 3.6 304 10 102930 43
2009-12-11 07:21:39 51°13.663 2°55.952 5.7 268 10 102920 45
2009-12-11 07:21:44 51°13.664 2°55.947 5.1 309 10 102920 45
2009-12-11 07:21:49 51°13.665 2°55.941 5.4 28 10 102920 43
2009-12-11 07:21:55 51°13.667 2°55.933 4.1 57 10 102920 43
2009-12-11 07:22:01 51°13.668 2°55.925 6.1 270 10 102920 46
2009-12-11 07:22:06 51°13.67 2°55.917 5.2 307 10 102920 46
2009-12-11 07:22:12 51°13.673 2°55.907 4.7 18 10 102930 42
2009-12-11 07:22:17 51°13.675 2°55.899 4.7 53 10 102930 42
2009-12-11 07:22:22 51°13.678 2°55.89 6.1 266 10 102920 42
2009-12-11 07:22:27 51°13.68 2°55.881 7 52 10 102920 42
2009-12-11 07:22:32 51°13.683 2°55.871 6.6 23 10 102920 42
2009-12-11 07:22:37 51°13.686 2°55.862 6.2 56 10 102920 42
2009-12-11 07:22:42 51°13.689 2°55.852 6.4 24 10 102920 46
2009-12-11 07:22:47 51°13.691 2°55.843 5.6 71 10 102920 46
2009-12-11 07:22:52 51°13.694 2°55.834 5 20 10 102930 42
2009-12-11 07:22:57 51°13.697 2°55.824 5.4 14 10 102930 42
2009-12-11 07:23:02 51°13.7 2°55.816 5.4 22 10 102920 45
2009-12-11 07:23:07 51°13.703 2°55.807 5.1 53 10 102920 45
2009-12-11 07:23:12 51°13.706 2°55.799 5.5 21 10 102920 44
2009-12-11 07:23:17 51°13.71 2°55.79 5.7 75 10 102920 44
2009-12-11 07:23:22 51°13.713 2°55.782 6.5 21 10 102920 46
2009-12-11 07:23:27 51°13.717 2°55.774 7.6 57 10 102920 46
2009-12-11 07:23:32 51°13.721 2°55.766 8.2 23 10 102920 44
2009-12-11 07:23:37 51°13.725 2°55.758 7.7 77 10 102920 44
2009-12-11 07:23:42 51°13.729 2°55.75 6.6 28 10 102920 43
2009-12-11 07:23:47 51°13.733 2°55.743 6.1 51 10 102920 43
2009-12-11 07:23:52 51°13.737 2°55.735 4.7 25 10 102920 46
2009-12-11 07:23:57 51°13.741 2°55.728 5.4 58 10 102920 46
2009-12-11 07:24:03 51°13.746 2°55.718 6.2 25 10 102920 43
2009-12-11 07:24:08 51°13.751 2°55.711 7.3 52 10 102920 43
2009-12-11 07:24:12 51°13.755 2°55.706 7.4 20 10 102920 45
2009-12-11 07:24:17 51°13.759 2°55.699 7.6 56 10 102920 45
2009-12-11 07:24:22 51°13.764 2°55.692 7.7 22 10 102920 46
2009-12-11 07:24:27 51°13.769 2°55.686 8.5 51 10 102920 46
2009-12-11 07:24:32 51°13.775 2°55.68 5.8 24 10 102920 45
2009-12-11 07:24:37 51°13.78 2°55.674 4.7 56 10 102920 45
2009-12-11 07:24:42 51°13.785 2°55.668 4.9 19 10 102920 43
2009-12-11 07:24:47 51°13.791 2°55.663 6 52 10 102920 43
2009-12-11 07:24:52 51°13.798 2°55.659 5.8 21 10 102920 42
2009-12-11 07:24:57 51°13.804 2°55.655 6.6 52 10 102920 42
2009-12-11 07:25:02 51°13.81 2°55.652 7.3 20 10 102920 45
2009-12-11 07:25:08 51°13.817 2°55.648 4.5 78 10 102920 45
2009-12-11 07:25:13 51°13.823 2°55.645 6.7 25 10 102920 43
2009-12-11 07:25:18 51°13.83 2°55.642 5.2 53 10 102920 43
2009-12-11 07:25:22 51°13.835 2°55.64 7.2 21 10 102920 47
2009-12-11 07:25:28 51°13.842 2°55.637 5.6 57 10 102920 47
2009-12-11 07:25:33 51°13.849 2°55.634 4.3 25 10.1 102920 45
2009-12-11 07:25:38 51°13.855 2°55.632 7.1 74 10.1 102920 45
2009-12-11 07:25:43 51°13.862 2°55.63 4.9 25 10.2 102920 48
2009-12-11 07:25:48 51°13.868 2°55.628 5.5 57 10.2 102920 48
2009-12-11 07:25:53 51°13.874 2°55.627 3.9 23 10.3 102920 47
2009-12-11 07:25:58 51°13.88 2°55.626 4.2 77 10.3 102920 47
2009-12-11 07:26:02 51°13.884 2°55.625 4.3 26 10.4 102920 48
2009-12-11 07:26:08 51°13.891 2°55.625 5.3 58 10.4 102920 48
2009-12-11 07:26:13 51°13.896 2°55.625 7.4 23 10.6 102910 44
2009-12-11 07:26:18 51°13.9 2°55.626 6.7 78 10.6 102910 44
2009-12-11 07:26:22 51°13.904 2°55.627 7.4 27 10.7 102920 44
2009-12-11 07:26:28 51°13.909 2°55.628 6.7 51 10.7 102920 44
2009-12-11 07:26:32 51°13.912 2°55.629 7.6 22 10.6 102910 46
2009-12-11 07:26:37 51°13.915 2°55.63 6.7 53 10.6 102910 46
2009-12-11 07:26:42 51°13.918 2°55.632 7.1 19 10.6 102910 42
2009-12-11 07:26:47 51°13.921 2°55.633 5.6 75 10.6 102910 42
2009-12-11 07:26:52 51°13.924 2°55.635 6.4 19 10.6 102910 42
2009-12-11 07:26:57 51°13.927 2°55.637 6.8 42 10.6 102910 42
2009-12-11 07:27:01 51°13.929 2°55.638 6.3 41 10.6 102910 42
2009-12-11 07:27:06 51°13.93 2°55.639 5.6 38 10.6 102910 42
2009-12-11 07:27:11 51°13.932 2°55.64 6.3 39 10.5 102920 46
2009-12-11 07:27:16 51°13.932 2°55.64 5 34 10.5 102920 46
2009-12-11 07:27:21 51°13.932 2°55.639 5.4 29 10.5 102910 43
2009-12-11 07:27:26 51°13.932 2°55.638 5.1 31 10.5 102910 43
2009-12-11 07:27:30 51°13.932 2°55.636 5.5 27 10.5 102910 45
2009-12-11 07:27:35 51°13.931 2°55.634 6.3 23 10.5 102910 45
2009-12-11 07:27:40 51°13.931 2°55.63 5.9 17 10.4 102910 43
2009-12-11 07:27:45 51°13.93 2°55.624 5.6 15 10.4 102910 43
2009-12-11 07:27:50 51°13.93 2°55.618 7.2 8 10.4 102910 43
2009-12-11 07:27:54 51°13.93 2°55.612 6.4 359 10.4 102910 43
2009-12-11 07:27:59 51°13.931 2°55.604 6 359 10.3 102900 46
2009-12-11 07:28:04 51°13.932 2°55.595 7 356 10.3 102900 46
2009-12-11 07:28:09 51°13.935 2°55.586 8 357 10.3 102910 46
2009-12-11 07:28:14 51°13.939 2°55.578 7.8 350 10.3 102910 46
2009-12-11 07:28:18 51°13.942 2°55.571 7.3 349 10.3 102910 43
2009-12-11 07:28:24 51°13.949 2°55.561 7.7 343 10.3 102910 43
2009-12-11 07:28:29 51°13.955 2°55.552 8.8 346 10.2 102910 43
2009-12-11 07:28:33 51°13.96 2°55.546 7.3 341 10.2 102910 43
2009-12-11 07:28:38 51°13.968 2°55.538 8.5 339 10.2 102900 47
2009-12-11 07:28:43 51°13.976 2°55.531 8.1 340 10.2 102900 47
2009-12-11 07:28:49 51°13.987 2°55.521 7.1 340 10.2 102900 44
2009-12-11 07:28:53 51°13.994 2°55.514 8.8 337 10.2 102900 44
2009-12-11 07:28:58 51°14.004 2°55.506 8 340 10.2 102900 44
2009-12-11 07:29:03 51°14.013 2°55.497 11.2 286 10.2 102900 44
2009-12-11 07:29:09 51°14.025 2°55.486 8.8 339 10.1 102890 47
2009-12-11 07:29:13 51°14.034 2°55.48 9.5 339 10.1 102890 47
2009-12-11 07:29:18 51°14.044 2°55.471 11 343 10.1 102890 44
2009-12-11 07:29:23 51°14.055 2°55.463 9.4 283 10.1 102890 44
2009-12-11 07:29:28 51°14.066 2°55.455 10.3 336 10.1 102900 46
2009-12-11 07:29:33 51°14.077 2°55.446 10 337 10.1 102900 46
2009-12-11 07:29:38 51°14.088 2°55.438 9.4 340 10.1 102890 46
2009-12-11 07:29:43 51°14.1 2°55.429 11.4 341 10.1 102890 46
2009-12-11 07:29:48 51°14.111 2°55.42 11.4 341 10.1 102890 47
2009-12-11 07:29:53 51°14.122 2°55.41 12 341 10.1 102890 47
2009-12-11 07:29:58 51°14.133 2°55.4 11.3 336 10.1 102890 44
2009-12-11 07:30:03 51°14.144 2°55.39 11.2 341 10.1 102890 44
2009-12-11 07:30:08 51°14.155 2°55.38 11.2 340 10.1 102890 44
2009-12-11 07:30:13 51°14.167 2°55.369 11.2 282 10.1 102890 44
2009-12-11 07:30:19 51°14.18 2°55.354 11.2 342 10 102890 44
2009-12-11 07:30:23 51°14.189 2°55.344 11.9 342 10 102890 44
2009-12-11 07:30:28 51°14.201 2°55.332 10.6 344 10 102900 43
2009-12-11 07:30:33 51°14.212 2°55.317 9.6 344 10 102900 43
2009-12-11 07:30:38 51°14.223 2°55.302 11.2 346 10 102890 45
2009-12-11 07:30:43 51°14.233 2°55.286 11.1 347 10 102890 45
2009-12-11 07:30:49 51°14.244 2°55.266 12.2 346 10 102890 44
2009-12-11 07:30:53 51°14.251 2°55.252 10.3 348 10 102890 44
2009-12-11 07:30:58 51°14.261 2°55.235 11.9 348 10 102890 45
2009-12-11 07:31:03 51°14.27 2°55.216 11.3 345 10 102890 45
2009-12-11 07:31:09 51°14.281 2°55.195 11.1 349 10 102890 43
2009-12-11 07:31:13 51°14.288 2°55.181 10.7 349 10 102890 43
2009-12-11 07:31:18 51°14.297 2°55.162 12 350 10 102890 45
2009-12-11 07:31:23 51°14.305 2°55.143 10.4 350 10 102890 45
2009-12-11 07:31:29 51°14.315 2°55.119 10.8 347 10 102880 45
2009-12-11 07:31:33 51°14.322 2°55.103 10.6 350 10 102880 45
2009-12-11 07:31:38 51°14.33 2°55.084 10.2 349 10 102890 44
2009-12-11 07:31:43 51°14.338 2°55.064 10.1 351 10 102890 44
2009-12-11 07:31:49 51°14.348 2°55.04 10.6 348 10 102880 44
2009-12-11 07:31:53 51°14.355 2°55.024 9.8 349 10 102880 44
2009-12-11 07:31:58 51°14.363 2°55.004 9.7 350 10 102880 46
2009-12-11 07:32:03 51°14.373 2°54.987 11.6 350 10 102880 46
2009-12-11 07:32:08 51°14.382 2°54.968 10 351 10 102900 47
2009-12-11 07:32:13 51°14.391 2°54.95 10.4 355 10 102900 47
2009-12-11 07:32:18 51°14.398 2°54.931 8.8 358 10 102880 45
2009-12-11 07:32:23 51°14.404 2°54.911 8.6 357 10 102880 45
2009-12-11 07:32:28 51°14.408 2°54.889 8.4 359 10 102890 47
2009-12-11 07:32:33 51°14.411 2°54.87 9.4 3 10 102890 47
2009-12-11 07:32:39 51°14.412 2°54.845 7.5 5 10 102890 45
2009-12-11 07:32:43 51°14.413 2°54.827 6.1 5 10 102890 45
2009-12-11 07:32:48 51°14.411 2°54.806 6.9 4 10 102880 45
2009-12-11 07:32:53 51°14.409 2°54.786 9.5 10 10 102880 45
2009-12-11 07:32:58 51°14.407 2°54.765 6.6 14 10 102890 45
2009-12-11 07:33:03 51°14.403 2°54.744 6.2 10 10 102890 45
2009-12-11 07:33:09 51°14.397 2°54.722 6.7 14 10 102890 44
2009-12-11 07:33:13 51°14.393 2°54.706 6.3 14 10 102890 44
2009-12-11 07:33:18 51°14.387 2°54.687 6.4 12 10 102890 47
2009-12-11 07:33:23 51°14.382 2°54.667 7.1 16 10 102890 47
2009-12-11 07:33:29 51°14.375 2°54.643 6.3 9 10 102900 47
2009-12-11 07:33:33 51°14.37 2°54.628 6.5 11 10 102900 47
2009-12-11 07:33:38 51°14.366 2°54.608 6.3 8 10 102900 47
2009-12-11 07:33:43 51°14.36 2°54.588 7.1 8 10 102900 47
2009-12-11 07:33:48 51°14.355 2°54.568 7.1 12 10 102900 44
2009-12-11 07:33:53 51°14.35 2°54.548 7 9 10 102900 44
2009-12-11 07:33:58 51°14.346 2°54.527 7.1 10 10 102890 46
2009-12-11 07:34:03 51°14.342 2°54.507 8.5 11 10 102890 46
2009-12-11 07:34:08 51°14.338 2°54.486 7.9 9 10 102900 43
2009-12-11 07:34:13 51°14.335 2°54.465 7.4 7 10 102900 43
2009-12-11 07:34:18 51°14.331 2°54.445 9.3 11 10 102900 44
2009-12-11 07:34:23 51°14.327 2°54.424 8.2 14 10 102900 44
2009-12-11 07:34:28 51°14.325 2°54.403 7.3 9 10 102900 47
2009-12-11 07:34:33 51°14.321 2°54.382 9.5 11 10 102900 47
2009-12-11 07:34:38 51°14.318 2°54.361 8.5 11 10 102890 45
2009-12-11 07:34:44 51°14.314 2°54.336 5.9 9 10 102890 45
2009-12-11 07:34:48 51°14.311 2°54.319 7.1 10 10 102900 45
2009-12-11 07:34:53 51°14.308 2°54.298 6.5 8 10 102900 45
2009-12-11 07:34:58 51°14.305 2°54.276 7.2 8 10 102900 45
2009-12-11 07:35:04 51°14.301 2°54.251 7.9 9 10 102900 45
2009-12-11 07:35:09 51°14.299 2°54.229 6.3 6 9.9 102900 44
2009-12-11 07:35:13 51°14.297 2°54.213 7.9 7 9.9 102900 44
2009-12-11 07:35:18 51°14.293 2°54.192 9 14 10 102890 42
2009-12-11 07:35:23 51°14.291 2°54.17 7.6 9 10 102890 42
2009-12-11 07:35:29 51°14.287 2°54.145 7.1 8 10 102890 46
2009-12-11 07:35:33 51°14.285 2°54.129 7.4 16 10 102890 46
2009-12-11 07:35:38 51°14.282 2°54.108 6.2 10 9.9 102890 42
2009-12-11 07:35:44 51°14.277 2°54.083 7.8 14 9.9 102890 42
2009-12-11 07:35:48 51°14.276 2°54.066 5.6 11 10 102890 43
2009-12-11 07:35:53 51°14.273 2°54.045 6 11 10 102890 43
2009-12-11 07:35:58 51°14.269 2°54.024 6.9 10 10 102890 46
2009-12-11 07:36:03 51°14.267 2°54.003 6.5 8 10 102890 46
2009-12-11 07:36:09 51°14.262 2°53.979 6.6 9 10 102890 42
2009-12-11 07:36:13 51°14.26 2°53.962 5.5 9 10 102890 42
2009-12-11 07:36:18 51°14.256 2°53.941 8 13 10 102900 45
2009-12-11 07:36:23 51°14.253 2°53.92 6.1 8 10 102900 45
2009-12-11 07:36:28 51°14.25 2°53.899 7.2 11 10 102900 44
2009-12-11 07:36:33 51°14.247 2°53.878 8.2 8 10 102900 44
2009-12-11 07:36:38 51°14.244 2°53.856 5.9 9 10 102900 45
2009-12-11 07:36:43 51°14.241 2°53.835 5.2 9 10 102900 45
2009-12-11 07:36:48 51°14.238 2°53.814 6.3 8 10 102900 42
2009-12-11 07:36:53 51°14.235 2°53.793 7.7 8 10 102900 42
2009-12-11 07:36:58 51°14.233 2°53.771 5.6 6 10 102890 44
2009-12-11 07:37:03 51°14.229 2°53.75 6.5 7 10 102890 44
2009-12-11 07:37:08 51°14.227 2°53.728 5.5 9 10 102900 45
2009-12-11 07:37:13 51°14.224 2°53.707 5.3 6 10 102900 45
2009-12-11 07:37:18 51°14.222 2°53.685 5.7 3 10 102890 43
2009-12-11 07:37:24 51°14.217 2°53.66 5 9 10 102890 43
2009-12-11 07:37:29 51°14.215 2°53.638 4.9 7 10 102900 47
2009-12-11 07:37:33 51°14.211 2°53.622 7 9 10 102900 47
2009-12-11 07:37:38 51°14.208 2°53.601 6.3 7 10 102890 48
2009-12-11 07:37:43 51°14.202 2°53.582 7.6 11 10 102890 48
2009-12-11 07:37:49 51°14.197 2°53.556 4.7 15 10 102900 47
2009-12-11 07:37:53 51°14.191 2°53.542 6.2 11 10 102900 47
2009-12-11 07:37:58 51°14.186 2°53.522 5.6 13 10 102890 47
2009-12-11 07:38:04 51°14.179 2°53.499 4.5 9 10 102890 47
2009-12-11 07:38:09 51°14.172 2°53.48 7.3 20 10 102890 43
2009-12-11 07:38:13 51°14.168 2°53.464 4.1 16 10 102890 43
2009-12-11 07:38:18 51°14.159 2°53.447 6.7 18 10 102900 47
2009-12-11 07:38:23 51°14.155 2°53.427 3.2 15 10 102900 47
2009-12-11 07:38:29 51°14.145 2°53.405 4.9 18 10 102900 43
2009-12-11 07:38:33 51°14.141 2°53.39 3.6 13 10 102900 43
2009-12-11 07:38:38 51°14.132 2°53.373 5.8 17 10 102910 45
2009-12-11 07:38:44 51°14.125 2°53.35 4.7 20 10 102910 45
2009-12-11 07:38:48 51°14.119 2°53.335 3.8 15 10 102920 44
2009-12-11 07:38:53 51°14.111 2°53.317 6.3 17 10 102920 44
2009-12-11 07:38:58 51°14.105 2°53.298 5.6 19 10 102910 43
2009-12-11 07:39:03 51°14.098 2°53.281 5.6 16 10 102910 43
2009-12-11 07:39:08 51°14.09 2°53.262 5.4 17 10 102910 42
2009-12-11 07:39:13 51°14.084 2°53.244 4.6 16 10 102910 42
2009-12-11 07:39:18 51°14.076 2°53.227 5 16 10 102910 42
2009-12-11 07:39:23 51°14.07 2°53.209 4.7 12 10 102910 42
2009-12-11 07:39:28 51°14.06 2°53.193 5.3 19 10 102900 45
2009-12-11 07:39:33 51°14.055 2°53.173 4.3 18 10 102900 45
2009-12-11 07:39:38 51°14.046 2°53.158 4.4 18 10 102910 46
2009-12-11 07:39:44 51°14.039 2°53.135 4 18 10 102910 46
2009-12-11 07:39:48 51°14.032 2°53.122 4.9 12 10 102910 45
2009-12-11 07:39:53 51°14.024 2°53.103 4.7 15 10 102910 45
2009-12-11 07:39:58 51°14.018 2°53.085 4.5 15 10 102910 42
2009-12-11 07:40:03 51°14.011 2°53.068 4.2 18 10 102910 42
2009-12-11 07:40:09 51°14.002 2°53.046 5.6 16 10 102910 45
2009-12-11 07:40:13 51°13.996 2°53.032 5 12 10 102910 45
2009-12-11 07:40:18 51°13.989 2°53.014 5.6 19 10 102900 46
2009-12-11 07:40:23 51°13.982 2°52.996 6.7 20 10 102900 46
2009-12-11 07:40:28 51°13.975 2°52.977 4.2 14 10 102910 42
2009-12-11 07:40:33 51°13.967 2°52.96 4.6 13 10 102910 42
2009-12-11 07:40:38 51°13.961 2°52.941 4 13 10 102900 46
2009-12-11 07:40:43 51°13.954 2°52.923 4.5 7 10 102900 46
2009-12-11 07:40:48 51°13.947 2°52.904 6.3 17 10 102900 45
2009-12-11 07:40:53 51°13.941 2°52.886 4 17 10 102900 45
2009-12-11 07:40:58 51°13.932 2°52.868 7 15 10 102910 46
2009-12-11 07:41:03 51°13.927 2°52.849 4.9 14 10 102910 46
2009-12-11 07:41:08 51°13.918 2°52.833 8 16 10 102920 42
2009-12-11 07:41:13 51°13.913 2°52.813 5.2 14 10 102920 42
2009-12-11 07:41:18 51°13.904 2°52.797 6.8 16 10 102910 48
2009-12-11 07:41:23 51°13.898 2°52.778 5.3 20 10 102910 48
2009-12-11 07:41:28 51°13.89 2°52.76 6.2 17 10 102910 45
2009-12-11 07:41:33 51°13.883 2°52.742 7.1 14 10 102910 45
2009-12-11 07:41:39 51°13.875 2°52.719 6.2 16 10 102900 44
2009-12-11 07:41:43 51°13.869 2°52.706 6.2 14 10 102900 44
2009-12-11 07:41:48 51°13.862 2°52.687 6 16 10 102900 46
2009-12-11 07:41:53 51°13.856 2°52.669 5.4 14 10 102900 46
2009-12-11 07:41:58 51°13.847 2°52.652 7.2 18 10 102900 45
2009-12-11 07:42:03 51°13.842 2°52.632 5.1 20 10 102900 45
2009-12-11 07:42:09 51°13.831 2°52.614 6.3 19 10 102910 43
2009-12-11 07:42:13 51°13.827 2°52.597 5.7 21 10 102910 43
2009-12-11 07:42:18 51°13.819 2°52.581 6.2 13 10 102910 47
2009-12-11 07:42:23 51°13.812 2°52.563 5.9 17 10 102910 47
2009-12-11 07:42:28 51°13.805 2°52.545 6.9 18 10 102910 47
2009-12-11 07:42:33 51°13.798 2°52.527 7.4 20 10 102910 47
2009-12-11 07:42:38 51°13.791 2°52.509 5.9 22 10 102910 46
2009-12-11 07:42:43 51°13.783 2°52.491 6 -999 10 102910 46
2009-12-11 07:42:49 51°13.776 2°52.468 6.6 17 10 102910 47
2009-12-11 07:42:53 51°13.77 2°52.454 7.5 18 10 102910 47
2009-12-11 07:42:58 51°13.764 2°52.434 6.3 20 10 102910 46
2009-12-11 07:43:03 51°13.756 2°52.417 7.3 15 10 102910 46
2009-12-11 07:43:08 51°13.75 2°52.397 7.6 16 10 102910 44
2009-12-11 07:43:13 51°13.743 2°52.379 7.5 15 10 102910 44
2009-12-11 07:43:18 51°13.736 2°52.36 6.7 15 10 102900 42
2009-12-11 07:43:23 51°13.729 2°52.341 7 18 10 102900 42
2009-12-11 07:43:28 51°13.723 2°52.322 5.4 7 10 102910 43
2009-12-11 07:43:33 51°13.715 2°52.305 7.7 16 10 102910 43
2009-12-11 07:43:39 51°13.709 2°52.281 5.8 18 10 102910 42
2009-12-11 07:43:43 51°13.702 2°52.267 7.1 13 10 102910 42
2009-12-11 07:43:48 51°13.696 2°52.248 7 15 10 102910 45
2009-12-11 07:43:53 51°13.69 2°52.23 6.1 12 10 102910 45
2009-12-11 07:43:58 51°13.682 2°52.212 6.6 13 10 102900 46
2009-12-11 07:44:03 51°13.676 2°52.193 8.5 11 10 102900 46
2009-12-11 07:44:08 51°13.668 2°52.175 7.6 14 10 102900 46
2009-12-11 07:44:13 51°13.662 2°52.156 7.1 18 10 102900 46
2009-12-11 07:44:18 51°13.655 2°52.137 7.8 17 10.1 102910 42
2009-12-11 07:44:24 51°13.646 2°52.116 6.9 20 10.1 102910 42
2009-12-11 07:44:28 51°13.641 2°52.1 5.5 14 10 102910 42
2009-12-11 07:44:33 51°13.634 2°52.082 6.6 18 10 102910 42
2009-12-11 07:44:38 51°13.627 2°52.062 5.5 16 10 102890 46
2009-12-11 07:44:43 51°13.62 2°52.045 6.9 13 10 102890 46
2009-12-11 07:44:49 51°13.612 2°52.022 6.5 13 10 102900 43
2009-12-11 07:44:53 51°13.607 2°52.007 6.5 11 10 102900 43
2009-12-11 07:44:58 51°13.599 2°51.989 8.3 20 10 102910 43
2009-12-11 07:45:03 51°13.594 2°51.969 6.1 14 10 102910 43
2009-12-11 07:45:09 51°13.584 2°51.948 7.4 17 10.1 102910 44
2009-12-11 07:45:13 51°13.58 2°51.932 5.9 15 10.1 102910 44
2009-12-11 07:45:18 51°13.573 2°51.914 5.5 12 10.1 102910 46
2009-12-11 07:45:23 51°13.565 2°51.897 7.6 19 10.1 102910 46
2009-12-11 07:45:28 51°13.56 2°51.876 4.7 17 10.1 102900 42
2009-12-11 07:45:33 51°13.551 2°51.861 7.7 18 10.1 102900 42
2009-12-11 07:45:38 51°13.545 2°51.841 5.3 18 10.1 102910 43
2009-12-11 07:45:43 51°13.537 2°51.825 5.9 11 10.1 102910 43
2009-12-11 07:45:49 51°13.529 2°51.801 6.2 20 10.1 102910 42
2009-12-11 07:45:53 51°13.524 2°51.788 4.9 10 10.1 102910 42
2009-12-11 07:45:58 51°13.515 2°51.77 8.3 15 10 102910 42
2009-12-11 07:46:03 51°13.51 2°51.751 5.8 11 10 102910 42
2009-12-11 07:46:08 51°13.502 2°51.734 7.8 14 10.1 102910 44
2009-12-11 07:46:13 51°13.496 2°51.714 6.5 16 10.1 102910 44
2009-12-11 07:46:18 51°13.488 2°51.697 6.2 10 10.1 102910 45
2009-12-11 07:46:24 51°13.482 2°51.673 5.2 13 10.1 102910 45
2009-12-11 07:46:28 51°13.475 2°51.659 7 17 10.1 102900 44
2009-12-11 07:46:33 51°13.469 2°51.64 5 16 10.1 102900 44
2009-12-11 07:46:38 51°13.461 2°51.622 7.6 18 10.1 102900 44
2009-12-11 07:46:43 51°13.456 2°51.603 5.3 -999 10.1 102900 44
2009-12-11 07:46:49 51°13.447 2°51.58 6 16 10.1 102910 46
2009-12-11 07:46:53 51°13.442 2°51.565 5.4 15 10.1 102910 46
2009-12-11 07:46:58 51°13.434 2°51.547 6.7 17 10.1 102900 46
2009-12-11 07:47:03 51°13.429 2°51.527 8.2 15 10.1 102900 46
2009-12-11 07:47:09 51°13.419 2°51.507 6.9 11 10.1 102910 44
2009-12-11 07:47:13 51°13.415 2°51.491 6.2 18 10.1 102910 44
2009-12-11 07:47:18 51°13.409 2°51.473 4.8 14 10.1 102910 47
2009-12-11 07:47:23 51°13.401 2°51.454 6.7 16 10.1 102910 47
2009-12-11 07:47:28 51°13.395 2°51.436 7.5 12 10.1 102910 43
2009-12-11 07:47:34 51°13.386 2°51.413 6.9 19 10.1 102910 43
2009-12-11 07:47:38 51°13.381 2°51.399 6.5 13 10.1 102910 46
2009-12-11 07:47:43 51°13.374 2°51.381 7.3 14 10.1 102910 46
2009-12-11 07:47:48 51°13.366 2°51.362 7.9 15 10.1 102910 42
2009-12-11 07:47:54 51°13.36 2°51.341 5.5 20 10.1 102910 42
2009-12-11 07:47:58 51°13.354 2°51.33 6.3 23 10.1 102900 45
2009-12-11 07:48:03 51°13.349 2°51.315 4.9 29 10.1 102900 45
2009-12-11 07:48:08 51°13.342 2°51.304 5.8 24 10.1 102910 46
2009-12-11 07:48:13 51°13.338 2°51.293 5 26 10.1 102910 46
2009-12-11 07:48:19 51°13.331 2°51.283 5.7 36 10.1 102910 44
2009-12-11 07:48:23 51°13.327 2°51.277 6.4 38 10.1 102910 44
2009-12-11 07:48:28 51°13.322 2°51.27 6.6 45 10.1 102920 42
2009-12-11 07:48:33 51°13.316 2°51.267 6 45 10.1 102920 42
2009-12-11 07:48:38 51°13.312 2°51.263 5.1 23 10.1 102920 46
2009-12-11 07:48:43 51°13.307 2°51.263 4.9 74 10.1 102920 46
2009-12-11 07:48:49 51°13.301 2°51.261 3.8 27 10.1 102910 44
2009-12-11 07:48:53 51°13.298 2°51.262 3.7 51 10.1 102910 44
2009-12-11 07:48:58 51°13.293 2°51.263 2.9 26 10.1 102910 42
2009-12-11 07:49:03 51°13.289 2°51.264 6.2 75 10.1 102910 42
2009-12-11 07:49:09 51°13.284 2°51.267 6.6 20 10.1 102920 45
2009-12-11 07:49:13 51°13.281 2°51.27 6.1 50 10.1 102920 45
2009-12-11 07:49:18 51°13.277 2°51.274 6.6 27 10.1 102920 46
2009-12-11 07:49:23 51°13.274 2°51.278 6.7 52 10.1 102920 46
2009-12-11 07:49:28 51°13.271 2°51.284 6.1 20 10.1 102930 46
2009-12-11 07:49:33 51°13.268 2°51.289 6.6 58 10.1 102930 46
2009-12-11 07:49:38 51°13.265 2°51.294 6.7 260 10.1 102930 44
2009-12-11 07:49:43 51°13.263 2°51.299 6.1 -999 10.1 102930 44
2009-12-11 07:49:48 51°13.261 2°51.305 7.3 28 10.1 102930 44
2009-12-11 07:49:53 51°13.26 2°51.309 7.1 54 10.1 102930 44
2009-12-11 07:49:58 51°13.259 2°51.314 8.3 22 10.1 102930 47
2009-12-11 07:50:03 51°13.258 2°51.318 8.1 314 10.1 102930 47
2009-12-11 07:50:08 51°13.258 2°51.321 5.6 262 10.1 102920 47
2009-12-11 07:50:13 51°13.257 2°51.324 5.7 286 10.1 102920 47
2009-12-11 07:50:19 51°13.257 2°51.327 7 268 10.1 102920 46
2009-12-11 07:50:24 51°13.257 2°51.33 5.8 282 10.1 102920 46
2009-12-11 07:50:28 51°13.257 2°51.331 5.7 266 10.1 102920 46
2009-12-11 07:50:33 51°13.257 2°51.335 5.1 278 10.1 102920 46
2009-12-11 07:50:38 51°13.257 2°51.338 4.8 264 10.1 102930 46
2009-12-11 07:50:43 51°13.257 2°51.339 5.9 281 10.1 102930 46
2009-12-11 07:50:49 51°13.258 2°51.342 5.5 264 10.1 102930 46
2009-12-11 07:50:53 51°13.257 2°51.343 6.2 286 10.1 102930 46
2009-12-11 07:50:58 51°13.257 2°51.344 5.5 266 10.1 102920 45
2009-12-11 07:51:04 51°13.258 2°51.346 6.7 281 10.1 102920 45
2009-12-11 07:51:09 51°13.258 2°51.348 6.6 267 10.1 102920 44
2009-12-11 07:51:13 51°13.258 2°51.348 4.5 280 10.1 102920 44
2009-12-11 07:51:18 51°13.258 2°51.35 6.5 268 10.1 102920 45
2009-12-11 07:51:23 51°13.258 2°51.351 5.1 284 10.1 102920 45
2009-12-11 07:51:29 51°13.259 2°51.352 5.4 267 10.1 102930 47
2009-12-11 07:51:33 51°13.259 2°51.354 6.6 285 10.1 102930 47
2009-12-11 07:51:38 51°13.259 2°51.355 5.7 268 10.1 102920 42
2009-12-11 07:51:43 51°13.259 2°51.356 6.7 279 10.1 102920 42
2009-12-11 07:51:49 51°13.259 2°51.358 6.5 272 10.1 102930 46
2009-12-11 07:51:54 51°13.26 2°51.36 7.6 281 10.1 102930 46
2009-12-11 07:51:58 51°13.259 2°51.36 8.3 270 10.1 102930 42
2009-12-11 07:52:03 51°13.26 2°51.362 6.4 285 10.1 102930 42
2009-12-11 07:52:08 51°13.26 2°51.363 7.1 265 10.1 102920 43
2009-12-11 07:52:14 51°13.259 2°51.364 6 282 10.1 102920 43
2009-12-11 07:52:18 51°13.259 2°51.365 6 265 10.1 102940 43
2009-12-11 07:52:23 51°13.259 2°51.367 6.3 284 10.1 102940 43
2009-12-11 07:52:29 51°13.258 2°51.368 6.4 267 10.1 102940 46
2009-12-11 07:52:33 51°13.259 2°51.37 5.9 284 10.1 102940 46
2009-12-11 07:52:38 51°13.259 2°51.372 5.2 265 10.1 102920 46
2009-12-11 07:52:43 51°13.259 2°51.373 5.8 285 10.1 102920 46
2009-12-11 07:52:49 51°13.259 2°51.375 7.1 270 10.1 102930 43
2009-12-11 07:52:53 51°13.259 2°51.376 7.2 283 10.1 102930 43
2009-12-11 07:52:58 51°13.259 2°51.377 7 270 10.1 102920 46
2009-12-11 07:53:03 51°13.259 2°51.379 6.5 283 10.1 102920 46
2009-12-11 07:53:09 51°13.259 2°51.381 7.2 268 10.1 102920 44
2009-12-11 07:53:13 51°13.26 2°51.383 7.2 279 10.1 102920 44
2009-12-11 07:53:18 51°13.259 2°51.384 6.8 267 10.1 102930 42
2009-12-11 07:53:24 51°13.259 2°51.386 6.8 288 10.1 102930 42
2009-12-11 07:53:29 51°13.26 2°51.387 5.9 269 10.1 102930 46
2009-12-11 07:53:33 51°13.259 2°51.388 5.3 280 10.1 102930 46
2009-12-11 07:53:38 51°13.259 2°51.39 5.7 270 10.1 102930 46
2009-12-11 07:53:43 51°13.259 2°51.391 5.4 279 10.1 102930 46
2009-12-11 07:53:49 51°13.259 2°51.393 6.1 267 10.1 102920 42
2009-12-11 07:53:53 51°13.259 2°51.394 6 281 10.1 102920 42
2009-12-11 07:53:58 51°13.259 2°51.396 7.1 271 10.1 102920 48
2009-12-11 07:54:03 51°13.26 2°51.398 6.2 282 10.1 102920 48
2009-12-11 07:54:09 51°13.259 2°51.399 6.1 269 10.1 102920 45
2009-12-11 07:54:13 51°13.26 2°51.401 4.8 283 10.1 102920 45
2009-12-11 07:54:18 51°13.259 2°51.402 5.9 266 10.1 102930 45
2009-12-11 07:54:23 51°13.259 2°51.404 6 279 10.1 102930 45
2009-12-11 07:54:28 51°13.26 2°51.406 6.1 267 10.1 102920 47
2009-12-11 07:54:33 51°13.259 2°51.408 4.9 280 10.1 102920 47
2009-12-11 07:54:38 51°13.26 2°51.409 6 267 10.1 102920 48
2009-12-11 07:54:43 51°13.26 2°51.411 5.7 279 10.1 102920 48
2009-12-11 07:54:48 51°13.261 2°51.413 5.3 265 10.1 102910 44
2009-12-11 07:54:53 51°13.26 2°51.414 5.2 282 10.1 102910 44
2009-12-11 07:54:58 51°13.261 2°51.416 5 264 10.1 102930 48
2009-12-11 07:55:03 51°13.261 2°51.418 5.5 279 10.1 102930 48
2009-12-11 07:55:08 51°13.261 2°51.42 4.8 264 10 102920 43
2009-12-11 07:55:13 51°13.261 2°51.422 4.8 278 10 102920 43
2009-12-11 07:55:18 51°13.261 2°51.423 6.6 264 10.1 102920 46
2009-12-11 07:55:23 51°13.261 2°51.425 5.7 284 10.1 102920 46
2009-12-11 07:55:29 51°13.261 2°51.427 5.5 262 10.1 102920 44
2009-12-11 07:55:33 51°13.26 2°51.428 4.6 283 10.1 102920 44
2009-12-11 07:55:38 51°13.261 2°51.431 5.1 264 10.1 102920 45
2009-12-11 07:55:43 51°13.26 2°51.432 5.1 285 10.1 102920 45
2009-12-11 07:55:49 51°13.26 2°51.434 6.4 262 10.1 102920 47
2009-12-11 07:55:53 51°13.261 2°51.436 5.3 279 10.1 102920 47
2009-12-11 07:55:58 51°13.261 2°51.438 5.1 264 10 102920 48
2009-12-11 07:56:03 51°13.261 2°51.44 5.2 285 10 102920 48
2009-12-11 07:56:09 51°13.261 2°51.442 5.2 261 10 102930 45
2009-12-11 07:56:13 51°13.261 2°51.444 8 281 10 102930 45
2009-12-11 07:56:18 51°13.261 2°51.446 6.8 261 10 102930 45
2009-12-11 07:56:23 51°13.261 2°51.447 5.4 281 10 102930 45
2009-12-11 07:56:28 51°13.261 2°51.449 4.6 263 10 102920 44
2009-12-11 07:56:33 51°13.261 2°51.451 5.6 279 10 102920 44
2009-12-11 07:56:38 51°13.261 2°51.453 6.5 262 10 102920 47
2009-12-11 07:56:43 51°13.262 2°51.455 6 279 10 102920 47
2009-12-11 07:56:48 51°13.261 2°51.457 5.4 261 10 102920 48
2009-12-11 07:56:53 51°13.262 2°51.459 8 281 10 102920 48
2009-12-11 07:56:58 51°13.261 2°51.461 6.8 261 10 102920 44
2009-12-11 07:57:03 51°13.262 2°51.463 4.8 281 10 102920 44
2009-12-11 07:57:08 51°13.262 2°51.465 4.7 262 10 102930 42
2009-12-11 07:57:13 51°13.262 2°51.467 6.1 280 10 102930 42
2009-12-11 07:57:18 51°13.262 2°51.469 8.3 259 10 102930 45
2009-12-11 07:57:23 51°13.261 2°51.471 7.1 283 10 102930 45
2009-12-11 07:57:28 51°13.262 2°51.474 6.2 262 10 102920 45
2009-12-11 07:57:33 51°13.262 2°51.477 6 283 10 102920 45
2009-12-11 07:57:38 51°13.261 2°51.481 4.6 263 10 102920 42
2009-12-11 07:57:43 51°13.261 2°51.486 6 285 10 102920 42
2009-12-11 07:57:49 51°13.26 2°51.493 6.8 268 10 102910 43
2009-12-11 07:57:53 51°13.259 2°51.498 6 281 10 102910 43
2009-12-11 07:57:58 51°13.257 2°51.505 6.5 268 10 102930 46
2009-12-11 07:58:04 51°13.254 2°51.514 5.5 87 10 102930 46
2009-12-11 07:58:08 51°13.251 2°51.519 6.1 26 10 102920 43
2009-12-11 07:58:14 51°13.246 2°51.526 5.2 75 10 102920 43
2009-12-11 07:58:18 51°13.243 2°51.531 5.2 21 10 102920 45
2009-12-11 07:58:23 51°13.238 2°51.535 5.1 75 10 102920 45
2009-12-11 07:58:28 51°13.233 2°51.539 3.6 28 10 102920 44
2009-12-11 07:58:34 51°13.227 2°51.54 2.2 75 10 102920 44
2009-12-11 07:58:38 51°13.223 2°51.541 5.2 19 10 102920 45
2009-12-11 07:58:43 51°13.218 2°51.541 5.4 80 10 102920 45
2009-12-11 07:58:48 51°13.215 2°51.539 5.3 20 10 102920 42
2009-12-11 07:58:54 51°13.209 2°51.537 5.5 35 10 102920 42
2009-12-11 07:58:58 51°13.207 2°51.534 6.3 37 10.1 102910 45
2009-12-11 07:59:04 51°13.202 2°51.53 5.8 37 10.1 102910 45
2009-12-11 07:59:08 51°13.2 2°51.527 6.5 38 10 102910 46
2009-12-11 07:59:13 51°13.195 2°51.522 6.5 35 10 102910 46
2009-12-11 07:59:18 51°13.192 2°51.516 4.1 34 10.1 102910 42
2009-12-11 07:59:24 51°13.186 2°51.51 6.1 33 10.1 102910 42
2009-12-11 07:59:29 51°13.181 2°51.505 5.2 33 10.1 102910 46
2009-12-11 07:59:33 51°13.177 2°51.499 6.5 31 10.1 102910 46
2009-12-11 07:59:38 51°13.172 2°51.493 5.3 30 10 102910 42
2009-12-11 07:59:44 51°13.167 2°51.484 5.3 32 10 102910 42
2009-12-11 07:59:48 51°13.163 2°51.479 5.8 27 10 102910 42
2009-12-11 07:59:53 51°13.158 2°51.471 5.6 29 10 102910 42
2009-12-11 07:59:58 51°13.154 2°51.464 5.9 33 10 102920 45
2009-12-11 08:00:04 51°13.149 2°51.455 6.3 27 10 102920 45
2009-12-11 08:00:09 51°13.146 2°51.447 3.8 31 10 102910 45
2009-12-11 08:00:13 51°13.143 2°51.442 7.4 27 10 102910 45
2009-12-11 08:00:18 51°13.141 2°51.434 5.4 28 10 102910 42
2009-12-11 08:00:23 51°13.137 2°51.428 6.9 30 10 102910 42
2009-12-11 08:00:28 51°13.135 2°51.421 6.1 29 10 102920 46
2009-12-11 08:00:34 51°13.133 2°51.412 6.1 28 10 102920 46
2009-12-11 08:00:38 51°13.131 2°51.408 6.2 29 10.1 102910 44
2009-12-11 08:00:43 51°13.128 2°51.402 7.5 25 10.1 102910 44
2009-12-11 08:00:49 51°13.125 2°51.394 6.1 23 10.1 102910 45
2009-12-11 08:00:54 51°13.125 2°51.388 6.4 25 10.1 102910 45
2009-12-11 08:00:58 51°13.122 2°51.383 6 28 10 102910 42
2009-12-11 08:01:03 51°13.121 2°51.377 7.7 26 10 102910 42
2009-12-11 08:01:08 51°13.118 2°51.372 7.5 24 10 102910 42
2009-12-11 08:01:14 51°13.117 2°51.364 5.8 27 10 102910 42
2009-12-11 08:01:18 51°13.115 2°51.36 7.6 24 10 102920 44
2009-12-11 08:01:24 51°13.114 2°51.352 4.9 23 10 102920 44
2009-12-11 08:01:28 51°13.113 2°51.348 6.9 22 10 102920 43
2009-12-11 08:01:33 51°13.112 2°51.342 6 25 10 102920 43
2009-12-11 08:01:38 51°13.111 2°51.336 5.7 19 10 102910 46
2009-12-11 08:01:44 51°13.109 2°51.33 6.9 19 10 102910 46
2009-12-11 08:01:49 51°13.108 2°51.324 6.4 23 10 102910 46
2009-12-11 08:01:53 51°13.107 2°51.319 7.3 24 10 102910 46
2009-12-11 08:01:58 51°13.106 2°51.313 7.3 22 10 102910 42
2009-12-11 08:02:04 51°13.105 2°51.305 6.2 27 10 102910 42
2009-12-11 08:02:08 51°13.104 2°51.3 6.1 21 10 102920 43
2009-12-11 08:02:13 51°13.103 2°51.294 5.7 26 10 102920 43
2009-12-11 08:02:18 51°13.102 2°51.288 7.1 22 10 102920 44
2009-12-11 08:02:24 51°13.101 2°51.281 7.2 22 10 102920 44
2009-12-11 08:02:29 51°13.099 2°51.274 6.9 22 10 102920 46
2009-12-11 08:02:33 51°13.098 2°51.269 6 22 10 102920 46
2009-12-11 08:02:38 51°13.097 2°51.262 6.6 19 10 102920 44
2009-12-11 08:02:44 51°13.096 2°51.254 6.4 22 10 102920 44
2009-12-11 08:02:49 51°13.095 2°51.247 6.9 23 10 102920 43
2009-12-11 08:02:54 51°13.094 2°51.24 7.9 23 10 102920 43
2009-12-11 08:02:58 51°13.093 2°51.234 6.5 22 10 102910 43
2009-12-11 08:03:03 51°13.092 2°51.228 6.8 19 10 102910 43
2009-12-11 08:03:08 51°13.091 2°51.221 6.8 17 10 102910 45
2009-12-11 08:03:14 51°13.09 2°51.212 6.5 19 10 102910 45
2009-12-11 08:03:18 51°13.09 2°51.206 6.7 22 10 102900 45
2009-12-11 08:03:23 51°13.089 2°51.199 7 25 10 102900 45
2009-12-11 08:03:28 51°13.088 2°51.192 5.3 21 10 102910 45
2009-12-11 08:03:34 51°13.087 2°51.184 6 20 10 102910 45
2009-12-11 08:03:38 51°13.085 2°51.179 8.3 21 10 102910 42
2009-12-11 08:03:44 51°13.085 2°51.17 6.1 22 10 102910 42
2009-12-11 08:03:48 51°13.084 2°51.164 6.4 21 10 102910 46
2009-12-11 08:03:53 51°13.084 2°51.157 6.2 20 10 102910 46
2009-12-11 08:03:58 51°13.082 2°51.15 7.2 19 10 102910 44
2009-12-11 08:04:03 51°13.082 2°51.143 6.5 19 10 102910 44
2009-12-11 08:04:09 51°13.081 2°51.135 6.2 18 10 102900 45
2009-12-11 08:04:13 51°13.08 2°51.129 6.9 18 10 102900 45
2009-12-11 08:04:18 51°13.08 2°51.122 7.2 15 10 102910 46
2009-12-11 08:04:24 51°13.079 2°51.113 7.2 20 10 102910 46
2009-12-11 08:04:29 51°13.078 2°51.106 7.4 19 10 102900 43
2009-12-11 08:04:33 51°13.078 2°51.1 6.6 18 10 102900 43
2009-12-11 08:04:38 51°13.077 2°51.093 6.2 18 10 102910 45
2009-12-11 08:04:44 51°13.077 2°51.084 5.4 19 10 102910 45
2009-12-11 08:04:48 51°13.076 2°51.078 7.6 21 10 102900 42
2009-12-11 08:04:53 51°13.076 2°51.07 6.4 18 10 102900 42
2009-12-11 08:04:58 51°13.075 2°51.063 6.6 20 10 102910 43
2009-12-11 08:05:03 51°13.074 2°51.056 6.4 20 10 102910 43
2009-12-11 08:05:09 51°13.074 2°51.048 6 25 10 102900 47
2009-12-11 08:05:13 51°13.072 2°51.043 7.3 23 10 102900 47
2009-12-11 08:05:18 51°13.071 2°51.036 6.4 24 10 102910 43
2009-12-11 08:05:23 51°13.068 2°51.029 5.9 28 10 102910 43
2009-12-11 08:05:28 51°13.066 2°51.023 6.5 32 10 102910 47
2009-12-11 08:05:33 51°13.064 2°51.017 6.4 32 10 102910 47
2009-12-11 08:05:38 51°13.062 2°51.011 5.9 26 10 102900 42
2009-12-11 08:05:43 51°13.06 2°51.005 5.9 31 10 102900 42
2009-12-11 08:05:48 51°13.057 2°50.999 6.4 30 10 102910 43
2009-12-11 08:05:53 51°13.055 2°50.993 6.1 28 10 102910 43
2009-12-11 08:05:58 51°13.053 2°50.987 6.8 28 10 102930 46
2009-12-11 08:06:03 51°13.05 2°50.981 6 30 10 102930 46
2009-12-11 08:06:08 51°13.048 2°50.976 6.2 29 10 102910 43
2009-12-11 08:06:13 51°13.045 2°50.97 5.5 34 10 102910 43
2009-12-11 08:06:18 51°13.043 2°50.964 5.3 35 10 102910 47
2009-12-11 08:06:23 51°13.039 2°50.96 7 31 10 102910 47
2009-12-11 08:06:28 51°13.037 2°50.954 5.5 30 10 102910 42
2009-12-11 08:06:33 51°13.035 2°50.948 5.3 32 10 102910 42
2009-12-11 08:06:38 51°13.032 2°50.943 6.5 30 10 102910 42
2009-12-11 08:06:43 51°13.029 2°50.937 5.8 -999 10 102910 42
2009-12-11 08:06:49 51°13.027 2°50.93 5.8 33 10 102910 46
2009-12-11 08:06:53 51°13.024 2°50.926 5.6 32 10 102910 46
2009-12-11 08:06:58 51°13.022 2°50.919 5.3 28 10 102910 44
2009-12-11 08:07:03 51°13.019 2°50.915 5 30 10 102910 44
2009-12-11 08:07:09 51°13.016 2°50.907 3.9 33 10 102910 42
2009-12-11 08:07:13 51°13.013 2°50.903 5.5 29 10 102910 42
2009-12-11 08:07:18 51°13.011 2°50.897 5.4 30 10 102910 43
2009-12-11 08:07:23 51°13.008 2°50.891 5.9 29 10 102910 43
2009-12-11 08:07:29 51°13.005 2°50.884 6.4 30 10 102910 42
2009-12-11 08:07:33 51°13.003 2°50.879 5.4 30 10 102910 42
2009-12-11 08:07:38 51°13 2°50.872 5.3 30 10 102920 46
2009-12-11 08:07:43 51°12.998 2°50.866 6.3 31 10 102920 46
2009-12-11 08:07:48 51°12.994 2°50.861 6 29 10 102910 45
2009-12-11 08:07:53 51°12.992 2°50.854 5.1 25 10 102910 45
2009-12-11 08:07:58 51°12.989 2°50.847 5.7 28 10 102910 42
2009-12-11 08:08:04 51°12.986 2°50.84 5 32 10 102910 42
2009-12-11 08:08:08 51°12.984 2°50.834 4.9 33 10 102920 43
2009-12-11 08:08:13 51°12.981 2°50.828 5.7 32 10 102920 43
2009-12-11 08:08:18 51°12.978 2°50.822 5.1 28 10 102900 42
2009-12-11 08:08:24 51°12.975 2°50.814 7 25 10 102900 42
2009-12-11 08:08:28 51°12.973 2°50.809 5.3 27 10 102910 42
2009-12-11 08:08:33 51°12.971 2°50.802 5.3 28 10 102910 42
2009-12-11 08:08:38 51°12.967 2°50.796 5 27 10 102910 43
2009-12-11 08:08:44 51°12.965 2°50.788 5.2 28 10 102910 43
2009-12-11 08:08:49 51°12.963 2°50.782 6 26 10 102910 41
2009-12-11 08:08:53 51°12.96 2°50.777 6.9 25 10 102910 41
2009-12-11 08:08:58 51°12.959 2°50.77 5.7 29 10 102920 44
2009-12-11 08:09:04 51°12.957 2°50.761 4.9 28 10 102920 44
2009-12-11 08:09:09 51°12.954 2°50.755 6.8 28 10 102920 44
2009-12-11 08:09:13 51°12.953 2°50.749 5.5 22 10 102920 44
2009-12-11 08:09:18 51°12.951 2°50.743 5.5 20 10 102900 43
2009-12-11 08:09:24 51°12.95 2°50.734 5.8 23 10 102900 43
2009-12-11 08:09:29 51°12.948 2°50.727 6.4 21 10 102920 46
2009-12-11 08:09:34 51°12.947 2°50.72 5.7 23 10 102920 46
2009-12-11 08:09:38 51°12.946 2°50.713 5.9 23 10 102910 42
2009-12-11 08:09:43 51°12.945 2°50.706 6.2 22 10 102910 42
2009-12-11 08:09:48 51°12.945 2°50.698 5.7 21 10 102910 45
2009-12-11 08:09:54 51°12.944 2°50.689 7.1 23 10 102910 45
2009-12-11 08:09:58 51°12.943 2°50.683 6.6 18 10 102910 41
2009-12-11 08:10:03 51°12.943 2°50.675 6.7 20 10 102910 41
2009-12-11 08:10:08 51°12.941 2°50.667 6.7 19 10 102910 45
2009-12-11 08:10:14 51°12.941 2°50.658 5.5 17 10 102910 45
2009-12-11 08:10:18 51°12.941 2°50.652 6.1 22 10 102920 43
2009-12-11 08:10:23 51°12.94 2°50.644 6.6 22 10 102920 43
2009-12-11 08:10:28 51°12.939 2°50.636 6.2 20 10 102910 41
2009-12-11 08:10:33 51°12.939 2°50.628 6.9 19 10 102910 41
2009-12-11 08:10:38 51°12.938 2°50.62 6 18 10 102910 42
2009-12-11 08:10:43 51°12.938 2°50.612 5.6 17 10 102910 42
2009-12-11 08:10:48 51°12.938 2°50.604 5.8 16 10 102920 46
2009-12-11 08:10:53 51°12.936 2°50.597 8.5 17 10 102920 46
2009-12-11 08:10:58 51°12.936 2°50.589 6.3 20 10 102920 42
2009-12-11 08:11:03 51°12.936 2°50.581 5.6 24 10 102920 42
2009-12-11 08:11:09 51°12.935 2°50.572 6.5 22 10 102910 45
2009-12-11 08:11:13 51°12.934 2°50.565 5.7 21 10 102910 45
2009-12-11 08:11:18 51°12.934 2°50.558 6.3 19 10 102910 42
2009-12-11 08:11:23 51°12.932 2°50.55 6.1 21 10 102910 42
2009-12-11 08:11:29 51°12.932 2°50.54 6.2 22 10 102920 41
2009-12-11 08:11:33 51°12.931 2°50.534 6.6 23 10 102920 41
2009-12-11 08:11:38 51°12.931 2°50.526 7.4 23 10 102910 41
2009-12-11 08:11:43 51°12.93 2°50.519 6.3 21 10 102910 41
2009-12-11 08:11:49 51°12.929 2°50.509 6.4 22 10 102910 45
2009-12-11 08:11:53 51°12.928 2°50.503 6.8 22 10 102910 45
2009-12-11 08:11:58 51°12.927 2°50.495 6.7 25 10 102910 41
2009-12-11 08:12:03 51°12.926 2°50.487 7.7 22 10 102910 41
2009-12-11 08:12:08 51°12.924 2°50.48 6.7 21 10 102910 42
2009-12-11 08:12:13 51°12.923 2°50.472 6 23 10 102910 42
2009-12-11 08:12:18 51°12.921 2°50.464 6.6 23 10 102910 42
2009-12-11 08:12:23 51°12.919 2°50.457 6.9 24 10 102910 42
2009-12-11 08:12:28 51°12.919 2°50.449 3.7 25 10 102910 42
2009-12-11 08:12:33 51°12.917 2°50.442 5.4 21 10 102910 42
2009-12-11 08:12:38 51°12.915 2°50.434 6 22 10 102910 46
2009-12-11 08:12:43 51°12.915 2°50.426 4.5 22 10 102910 46
2009-12-11 08:12:48 51°12.913 2°50.418 4.8 26 10 102910 43
2009-12-11 08:12:53 51°12.911 2°50.412 6 26 10 102910 43
2009-12-11 08:12:58 51°12.91 2°50.403 5 25 10 102920 42
2009-12-11 08:13:03 51°12.909 2°50.396 4.9 26 10 102920 42
2009-12-11 08:13:08 51°12.907 2°50.388 4.9 25 10 102910 45
2009-12-11 08:13:13 51°12.905 2°50.38 4.1 23 10 102910 45
2009-12-11 08:13:18 51°12.904 2°50.373 5.3 25 10 102910 46
2009-12-11 08:13:23 51°12.902 2°50.365 4.6 25 10 102910 46
2009-12-11 08:13:29 51°12.901 2°50.355 5.3 28 10 102910 41
2009-12-11 08:13:33 51°12.899 2°50.349 5.3 27 10 102910 41
2009-12-11 08:13:38 51°12.898 2°50.341 5.2 25 10 102920 44
2009-12-11 08:13:43 51°12.896 2°50.334 5.7 27 10 102920 44
2009-12-11 08:13:49 51°12.895 2°50.324 5.3 27 10 102910 45
2009-12-11 08:13:53 51°12.894 2°50.318 4.4 29 10 102910 45
2009-12-11 08:13:58 51°12.892 2°50.31 5.6 26 10 102910 46
2009-12-11 08:14:03 51°12.89 2°50.303 6.3 26 10 102910 46
2009-12-11 08:14:09 51°12.889 2°50.293 4.3 24 10 102910 41
2009-12-11 08:14:13 51°12.887 2°50.287 5.8 26 10 102910 41
2009-12-11 08:14:18 51°12.886 2°50.279 4.8 30 10 102910 43
2009-12-11 08:14:24 51°12.884 2°50.27 7.1 25 10 102910 43
2009-12-11 08:14:28 51°12.882 2°50.264 8.8 30 10.1 102910 42
2009-12-11 08:14:33 51°12.881 2°50.255 8.5 29 10.1 102910 42
2009-12-11 08:14:38 51°12.879 2°50.248 8.8 29 10 102910 45
2009-12-11 08:14:44 51°12.877 2°50.238 7.8 30 10 102910 45
2009-12-11 08:14:48 51°12.876 2°50.233 8.4 25 10 102910 44
2009-12-11 08:14:53 51°12.875 2°50.225 6.2 29 10 102910 44
2009-12-11 08:14:58 51°12.873 2°50.217 8.1 26 10.1 102910 45
2009-12-11 08:15:04 51°12.871 2°50.208 8.6 27 10.1 102910 45
2009-12-11 08:15:09 51°12.87 2°50.201 7.9 27 10 102910 42
2009-12-11 08:15:13 51°12.869 2°50.195 7.7 26 10 102910 42
2009-12-11 08:15:18 51°12.868 2°50.187 8 26 10.1 102900 44
2009-12-11 08:15:24 51°12.866 2°50.178 7 29 10.1 102900 44
2009-12-11 08:15:28 51°12.865 2°50.172 8.5 28 10.1 102900 43
2009-12-11 08:15:33 51°12.864 2°50.164 8 28 10.1 102900 43
2009-12-11 08:15:38 51°12.862 2°50.156 6.4 29 10.1 102900 43
2009-12-11 08:15:44 51°12.86 2°50.147 5.6 29 10.1 102900 43
2009-12-11 08:15:49 51°12.859 2°50.139 8.4 29 10.1 102910 44
2009-12-11 08:15:53 51°12.858 2°50.133 7.8 28 10.1 102910 44
2009-12-11 08:15:58 51°12.857 2°50.125 7.4 24 10.1 102900 43
2009-12-11 08:16:03 51°12.855 2°50.118 7.2 27 10.1 102900 43
2009-12-11 08:16:08 51°12.854 2°50.11 7.1 28 10.1 102910 44
2009-12-11 08:16:14 51°12.851 2°50.101 7.7 23 10.1 102910 44
2009-12-11 08:16:18 51°12.851 2°50.094 7.2 27 10.1 102900 43
2009-12-11 08:16:23 51°12.849 2°50.087 6.9 30 10.1 102900 43
2009-12-11 08:16:29 51°12.847 2°50.078 7.4 29 10.1 102910 47
2009-12-11 08:16:34 51°12.846 2°50.07 7.3 29 10.1 102910 47
2009-12-11 08:16:38 51°12.844 2°50.065 7.5 28 10.1 102900 43
2009-12-11 08:16:43 51°12.841 2°50.058 7.9 30 10.1 102900 43
2009-12-11 08:16:48 51°12.84 2°50.051 6.9 32 10.1 102910 44
2009-12-11 08:16:54 51°12.837 2°50.042 7 34 10.1 102910 44
2009-12-11 08:16:58 51°12.834 2°50.037 6.6 28 10.1 102910 46
2009-12-11 08:17:03 51°12.832 2°50.03 7 31 10.1 102910 46
2009-12-11 08:17:09 51°12.83 2°50.021 5.8 33 10.1 102900 42
2009-12-11 08:17:13 51°12.827 2°50.016 6.8 32 10.1 102900 42
2009-12-11 08:17:18 51°12.825 2°50.009 7 27 10.1 102900 42
2009-12-11 08:17:23 51°12.822 2°50.002 6.6 30 10.1 102900 42
2009-12-11 08:17:29 51°12.819 2°49.994 6.1 30 10.1 102900 44
2009-12-11 08:17:33 51°12.816 2°49.988 5.9 30 10.1 102900 44
2009-12-11 08:17:38 51°12.814 2°49.982 6.1 31 10.1 102910 42
2009-12-11 08:17:43 51°12.811 2°49.975 7.9 32 10.1 102910 42
2009-12-11 08:17:49 51°12.808 2°49.966 7.2 30 10.1 102900 43
2009-12-11 08:17:53 51°12.806 2°49.961 7.8 32 10.1 102900 43
2009-12-11 08:17:58 51°12.804 2°49.954 6.7 29 10.1 102900 43
2009-12-11 08:18:04 51°12.8 2°49.946 7.5 33 10.1 102900 43
2009-12-11 08:18:09 51°12.797 2°49.94 6.4 32 10.1 102900 43
2009-12-11 08:18:13 51°12.794 2°49.935 6.9 29 10.1 102900 43
2009-12-11 08:18:18 51°12.792 2°49.928 6 33 10.1 102900 46
2009-12-11 08:18:23 51°12.789 2°49.921 6.4 34 10.1 102900 46
2009-12-11 08:18:29 51°12.785 2°49.914 7.1 30 10.1 102910 42
2009-12-11 08:18:33 51°12.783 2°49.908 7.6 31 10.1 102910 42
2009-12-11 08:18:38 51°12.781 2°49.901 7.7 33 10.1 102900 43
2009-12-11 08:18:43 51°12.779 2°49.894 6.6 25 10.1 102900 43
2009-12-11 08:18:48 51°12.776 2°49.887 8.7 26 10.1 102910 45
2009-12-11 08:18:54 51°12.773 2°49.879 7.3 30 10.1 102910 45
2009-12-11 08:18:58 51°12.771 2°49.873 7 29 10.1 102900 44
2009-12-11 08:19:03 51°12.769 2°49.866 6.9 29 10.1 102900 44
2009-12-11 08:19:08 51°12.766 2°49.86 7.5 30 10.1 102910 47
2009-12-11 08:19:14 51°12.763 2°49.852 7.8 29 10.1 102910 47
2009-12-11 08:19:18 51°12.762 2°49.847 8.3 30 10.1 102910 46
2009-12-11 08:19:23 51°12.759 2°49.84 8.3 32 10.1 102910 46
2009-12-11 08:19:29 51°12.757 2°49.831 7.1 29 10.1 102910 45
2009-12-11 08:19:33 51°12.755 2°49.826 8.9 30 10.1 102910 45
2009-12-11 08:19:38 51°12.753 2°49.818 6.8 26 10.1 102910 46
2009-12-11 08:19:43 51°12.752 2°49.81 6.7 31 10.1 102910 46
2009-12-11 08:19:49 51°12.748 2°49.803 7.4 28 10.1 102890 42
2009-12-11 08:19:53 51°12.747 2°49.797 6.8 28 10.1 102890 42
2009-12-11 08:19:58 51°12.744 2°49.79 7.4 30 10.1 102900 43
2009-12-11 08:20:03 51°12.742 2°49.782 8.3 31 10.1 102900 43
2009-12-11 08:20:09 51°12.74 2°49.774 7.1 30 10.1 102920 43
2009-12-11 08:20:13 51°12.738 2°49.768 7 29 10.1 102920 43
2009-12-11 08:20:18 51°12.736 2°49.761 7.9 30 10.1 102900 45
2009-12-11 08:20:23 51°12.734 2°49.753 6.5 22 10.1 102900 45
2009-12-11 08:20:29 51°12.731 2°49.745 7.1 28 10.1 102900 44
2009-12-11 08:20:33 51°12.73 2°49.739 6.8 26 10.1 102900 44
2009-12-11 08:20:38 51°12.726 2°49.733 8 33 10.2 102910 45
2009-12-11 08:20:43 51°12.725 2°49.725 7.4 28 10.2 102910 45
2009-12-11 08:20:49 51°12.722 2°49.716 6.7 31 10.2 102900 45
2009-12-11 08:20:53 51°12.72 2°49.711 6.9 28 10.2 102900 45
2009-12-11 08:20:58 51°12.718 2°49.703 7 28 10.1 102910 42
2009-12-11 08:21:03 51°12.716 2°49.696 8.5 31 10.1 102910 42
2009-12-11 08:21:08 51°12.714 2°49.689 7.3 21 10.1 102900 46
2009-12-11 08:21:13 51°12.711 2°49.682 7.6 25 10.1 102900 46
2009-12-11 08:21:18 51°12.709 2°49.675 6.3 29 10.1 102910 43
2009-12-11 08:21:23 51°12.707 2°49.667 8 24 10.1 102910 43
2009-12-11 08:21:28 51°12.705 2°49.66 7.3 31 10.1 102900 45
2009-12-11 08:21:33 51°12.702 2°49.653 8.1 26 10.1 102900 45
2009-12-11 08:21:38 51°12.7 2°49.646 8.6 28 10.1 102910 43
2009-12-11 08:21:43 51°12.699 2°49.638 7.2 31 10.1 102910 43
2009-12-11 08:21:48 51°12.696 2°49.631 8.2 30 10.1 102900 44
2009-12-11 08:21:53 51°12.693 2°49.624 7.2 29 10.1 102900 44
2009-12-11 08:21:58 51°12.692 2°49.617 7.4 27 10.1 102910 42
2009-12-11 08:22:03 51°12.689 2°49.61 9.4 25 10.1 102910 42
2009-12-11 08:22:08 51°12.687 2°49.603 8.5 27 10.1 102910 41
2009-12-11 08:22:13 51°12.685 2°49.596 7.7 28 10.1 102910 41
2009-12-11 08:22:18 51°12.682 2°49.588 7.8 30 10.1 102910 45
2009-12-11 08:22:23 51°12.68 2°49.581 8.9 29 10.1 102910 45
2009-12-11 08:22:29 51°12.677 2°49.573 8.4 28 10.1 102910 42
2009-12-11 08:22:33 51°12.675 2°49.567 6.7 25 10.1 102910 42
2009-12-11 08:22:38 51°12.673 2°49.56 7.8 28 10.1 102910 45
2009-12-11 08:22:43 51°12.671 2°49.553 8.6 31 10.1 102910 45
2009-12-11 08:22:49 51°12.669 2°49.544 8.4 29 10.1 102910 44
2009-12-11 08:22:53 51°12.667 2°49.538 8.3 31 10.1 102910 44
2009-12-11 08:22:58 51°12.665 2°49.531 8 32 10.1 102910 42
2009-12-11 08:23:03 51°12.663 2°49.524 8.6 29 10.1 102910 42
2009-12-11 08:23:09 51°12.66 2°49.515 6.3 31 10.1 102910 42
2009-12-11 08:23:13 51°12.657 2°49.51 7.9 29 10.1 102910 42
2009-12-11 08:23:18 51°12.655 2°49.503 6.5 27 10.1 102910 46
2009-12-11 08:23:24 51°12.652 2°49.494 5.3 32 10.1 102910 46
2009-12-11 08:23:28 51°12.65 2°49.489 7.2 31 10.1 102910 44
2009-12-11 08:23:33 51°12.647 2°49.482 7.6 32 10.1 102910 44
2009-12-11 08:23:38 51°12.644 2°49.475 7.8 29 10.1 102910 43
2009-12-11 08:23:44 51°12.642 2°49.467 6.5 32 10.1 102910 43
2009-12-11 08:23:48 51°12.639 2°49.462 7.7 30 10.1 102910 43
2009-12-11 08:23:53 51°12.637 2°49.454 7.9 34 10.1 102910 43
2009-12-11 08:23:58 51°12.633 2°49.449 8.2 30 10.2 102910 45
2009-12-11 08:24:04 51°12.63 2°49.441 7.7 28 10.2 102910 45
2009-12-11 08:24:09 51°12.626 2°49.435 9 29 10.1 102910 45
2009-12-11 08:24:13 51°12.625 2°49.429 7.8 32 10.1 102910 45
2009-12-11 08:24:18 51°12.621 2°49.424 9.2 32 10.1 102920 44
2009-12-11 08:24:24 51°12.618 2°49.416 7.5 33 10.1 102920 44
2009-12-11 08:24:28 51°12.615 2°49.411 5.3 29 10.1 102910 43
2009-12-11 08:24:33 51°12.612 2°49.405 7.2 29 10.1 102910 43
2009-12-11 08:24:38 51°12.61 2°49.397 7.1 29 10.1 102910 45
2009-12-11 08:24:44 51°12.606 2°49.39 6.5 27 10.1 102910 45
2009-12-11 08:24:49 51°12.604 2°49.383 7.6 34 10.1 102910 44
2009-12-11 08:24:53 51°12.601 2°49.378 8.3 29 10.1 102910 44
2009-12-11 08:24:58 51°12.599 2°49.371 8.1 32 10.2 102900 46
2009-12-11 08:25:03 51°12.596 2°49.364 8.2 31 10.2 102900 46
2009-12-11 08:25:08 51°12.594 2°49.358 6.7 29 10.2 102910 46
2009-12-11 08:25:14 51°12.591 2°49.35 7.4 31 10.2 102910 46
2009-12-11 08:25:18 51°12.588 2°49.344 8.3 30 10.1 102910 44
2009-12-11 08:25:23 51°12.585 2°49.337 7.8 31 10.1 102910 44
2009-12-11 08:25:28 51°12.583 2°49.331 8.5 32 10.1 102910 46
2009-12-11 08:25:34 51°12.579 2°49.323 7.9 31 10.1 102910 46
2009-12-11 08:25:38 51°12.577 2°49.317 7.2 34 10.2 102910 43
2009-12-11 08:25:43 51°12.573 2°49.311 8.1 33 10.2 102910 43
2009-12-11 08:25:48 51°12.571 2°49.305 8 31 10.1 102910 43
2009-12-11 08:25:54 51°12.568 2°49.296 8.7 30 10.1 102910 43
2009-12-11 08:25:58 51°12.565 2°49.292 8.2 26 10.2 102910 45
2009-12-11 08:26:03 51°12.563 2°49.284 8.1 31 10.2 102910 45
2009-12-11 08:26:09 51°12.559 2°49.277 8.4 29 10.2 102920 45
2009-12-11 08:26:13 51°12.557 2°49.272 7.6 34 10.2 102920 45
2009-12-11 08:26:18 51°12.554 2°49.265 8.2 35 10.2 102910 42
2009-12-11 08:26:23 51°12.551 2°49.258 8.3 32 10.2 102910 42
2009-12-11 08:26:29 51°12.548 2°49.25 8.4 31 10.2 102910 42
2009-12-11 08:26:33 51°12.545 2°49.245 8.6 31 10.2 102910 42
2009-12-11 08:26:38 51°12.543 2°49.238 7.2 33 10.2 102900 43
2009-12-11 08:26:43 51°12.539 2°49.232 8.1 30 10.2 102900 43
2009-12-11 08:26:49 51°12.536 2°49.224 4.9 29 10.1 102910 45
2009-12-11 08:26:53 51°12.534 2°49.218 5.6 28 10.1 102910 45
2009-12-11 08:26:58 51°12.531 2°49.212 6.1 30 10.1 102910 45
2009-12-11 08:27:04 51°12.528 2°49.204 5.3 33 10.1 102910 45
2009-12-11 08:27:09 51°12.525 2°49.198 4.5 33 10.1 102910 41
2009-12-11 08:27:13 51°12.523 2°49.193 6.3 29 10.1 102910 41
2009-12-11 08:27:18 51°12.52 2°49.186 5.3 32 10.1 102920 43
2009-12-11 08:27:23 51°12.517 2°49.179 5.4 29 10.1 102920 43
2009-12-11 08:27:29 51°12.514 2°49.172 5.6 30 10.1 102920 41
2009-12-11 08:27:33 51°12.512 2°49.166 5.9 32 10.1 102920 41
2009-12-11 08:27:38 51°12.509 2°49.159 6 31 10.1 102910 42
2009-12-11 08:27:43 51°12.506 2°49.153 5.4 30 10.1 102910 42
2009-12-11 08:27:48 51°12.504 2°49.146 5.2 31 10.1 102910 45
2009-12-11 08:27:54 51°12.501 2°49.137 5.6 34 10.1 102910 45
2009-12-11 08:27:58 51°12.498 2°49.132 5.2 33 10.1 102910 45
2009-12-11 08:28:03 51°12.496 2°49.125 5.4 28 10.1 102910 45
2009-12-11 08:28:08 51°12.492 2°49.119 6.3 36 10.1 102920 44
2009-12-11 08:28:13 51°12.49 2°49.111 6.1 33 10.1 102920 44
2009-12-11 08:28:18 51°12.487 2°49.105 5 30 10.1 102920 42
2009-12-11 08:28:23 51°12.484 2°49.099 5 35 10.1 102920 42
2009-12-11 08:28:29 51°12.481 2°49.09 4.7 32 10.1 102920 44
2009-12-11 08:28:33 51°12.478 2°49.085 5.1 33 10.1 102920 44
2009-12-11 08:28:38 51°12.476 2°49.078 3.6 32 10.2 102920 41
2009-12-11 08:28:43 51°12.471 2°49.072 5 31 10.2 102920 41
2009-12-11 08:28:49 51°12.469 2°49.063 4.8 34 10.2 102910 45
2009-12-11 08:28:53 51°12.466 2°49.058 6.5 27 10.2 102910 45
2009-12-11 08:28:58 51°12.464 2°49.051 4.9 35 10.2 102910 43
2009-12-11 08:29:03 51°12.461 2°49.044 5.8 37 10.2 102910 43
2009-12-11 08:29:09 51°12.458 2°49.036 3.9 30 10.2 102920 44
2009-12-11 08:29:13 51°12.455 2°49.032 5.2 26 10.2 102920 44
2009-12-11 08:29:18 51°12.452 2°49.024 5 28 10.2 102920 46
2009-12-11 08:29:23 51°12.45 2°49.017 4.9 33 10.2 102920 46
2009-12-11 08:29:29 51°12.446 2°49.01 4.7 29 10.2 102910 44
2009-12-11 08:29:33 51°12.444 2°49.005 5.4 31 10.2 102910 44
2009-12-11 08:29:38 51°12.441 2°48.998 6.5 35 10.1 102920 42
2009-12-11 08:29:43 51°12.438 2°48.992 5 31 10.1 102920 42
2009-12-11 08:29:49 51°12.434 2°48.983 5.9 36 10.2 102920 42
2009-12-11 08:29:53 51°12.432 2°48.978 5.7 35 10.2 102920 42
2009-12-11 08:29:58 51°12.429 2°48.971 6.4 36 10.1 102920 43
2009-12-11 08:30:03 51°12.426 2°48.964 6.4 33 10.1 102920 43
2009-12-11 08:30:08 51°12.423 2°48.958 7.1 38 10.1 102920 43
2009-12-11 08:30:13 51°12.42 2°48.952 4.7 29 10.1 102920 43
2009-12-11 08:30:18 51°12.417 2°48.945 4.7 36 10.1 102920 45
2009-12-11 08:30:23 51°12.414 2°48.939 5.3 36 10.1 102920 45
2009-12-11 08:30:28 51°12.412 2°48.932 5 37 10.1 102920 41
2009-12-11 08:30:33 51°12.408 2°48.926 8 32 10.1 102920 41
2009-12-11 08:30:38 51°12.406 2°48.919 7.5 32 10.1 102910 40
2009-12-11 08:30:43 51°12.403 2°48.912 7.4 33 10.1 102910 40
2009-12-11 08:30:48 51°12.4 2°48.906 6.5 30 10.1 102920 41
2009-12-11 08:30:53 51°12.397 2°48.899 6 34 10.1 102920 41
2009-12-11 08:30:58 51°12.395 2°48.892 6.3 30 10.1 102920 43
2009-12-11 08:31:03 51°12.391 2°48.886 6.4 34 10.1 102920 43
2009-12-11 08:31:08 51°12.389 2°48.879 4.1 32 10.1 102910 41
2009-12-11 08:31:13 51°12.385 2°48.873 6 28 10.1 102910 41
2009-12-11 08:31:18 51°12.383 2°48.866 6.2 32 10.1 102920 44
2009-12-11 08:31:23 51°12.38 2°48.86 6.8 31 10.1 102920 44
2009-12-11 08:31:29 51°12.377 2°48.852 5.1 30 10.1 102910 44
2009-12-11 08:31:33 51°12.375 2°48.846 5.3 31 10.1 102910 44
2009-12-11 08:31:38 51°12.372 2°48.84 6.5 36 10.1 102920 44
2009-12-11 08:31:43 51°12.37 2°48.833 4.3 35 10.1 102920 44
2009-12-11 08:31:49 51°12.367 2°48.825 4.8 30 10.1 102910 45
2009-12-11 08:31:53 51°12.364 2°48.82 5.4 34 10.1 102910 45
2009-12-11 08:31:58 51°12.362 2°48.813 4.2 33 10.1 102910 41
2009-12-11 08:32:04 51°12.358 2°48.806 4.6 30 10.1 102910 41
2009-12-11 08:32:09 51°12.356 2°48.799 5.3 32 10.1 102920 40
2009-12-11 08:32:13 51°12.354 2°48.793 7 31 10.1 102920 40
2009-12-11 08:32:18 51°12.352 2°48.786 5.1 31 10.2 102920 40
2009-12-11 08:32:24 51°12.349 2°48.777 5.4 32 10.2 102920 40
2009-12-11 08:32:28 51°12.347 2°48.772 5.8 29 10.2 102920 44
2009-12-11 08:32:33 51°12.345 2°48.765 5.4 30 10.2 102920 44
2009-12-11 08:32:38 51°12.342 2°48.758 5.2 31 10.2 102920 44
2009-12-11 08:32:44 51°12.339 2°48.75 6.2 31 10.2 102920 44
2009-12-11 08:32:48 51°12.338 2°48.743 5.8 30 10.2 102920 41
2009-12-11 08:32:53 51°12.336 2°48.736 5.2 32 10.2 102920 41
2009-12-11 08:32:58 51°12.334 2°48.729 5.8 28 10.2 102910 41
2009-12-11 08:33:04 51°12.332 2°48.72 5.4 29 10.2 102910 41
2009-12-11 08:33:08 51°12.33 2°48.714 7 31 10.2 102910 40
2009-12-11 08:33:13 51°12.328 2°48.707 5.8 33 10.2 102910 40
2009-12-11 08:33:18 51°12.326 2°48.7 6.5 28 10.2 102920 41
2009-12-11 08:33:24 51°12.324 2°48.691 6.9 29 10.2 102920 41
2009-12-11 08:33:28 51°12.322 2°48.685 6 28 10.2 102920 41
2009-12-11 08:33:33 51°12.32 2°48.677 5.1 28 10.2 102920 41
2009-12-11 08:33:38 51°12.318 2°48.67 4.5 30 10.2 102920 40
2009-12-11 08:33:44 51°12.315 2°48.661 4.6 29 10.2 102920 40
2009-12-11 08:33:49 51°12.314 2°48.654 5 25 10.2 102910 45
2009-12-11 08:33:53 51°12.312 2°48.648 5.2 29 10.2 102910 45
2009-12-11 08:33:58 51°12.31 2°48.64 5.5 30 10.2 102920 44
2009-12-11 08:34:02 51°12.308 2°48.635 5 28 10.2 102920 44
2009-12-11 08:34:09 51°12.305 2°48.624 5.3 27 10.2 102920 45
2009-12-11 08:34:13 51°12.304 2°48.618 5.5 30 10.2 102920 45
2009-12-11 08:34:18 51°12.301 2°48.611 5.8 30 10.2 102910 41
2009-12-11 08:34:24 51°12.298 2°48.603 5.7 30 10.2 102910 41
2009-12-11 08:34:28 51°12.297 2°48.597 4.9 28 10.2 102920 45
2009-12-11 08:34:34 51°12.294 2°48.588 5.2 27 10.2 102920 45
2009-12-11 08:34:38 51°12.292 2°48.582 5.1 28 10.2 102920 42
2009-12-11 08:34:43 51°12.289 2°48.575 5.7 27 10.2 102920 42
2009-12-11 08:34:48 51°12.288 2°48.567 5 27 10.2 102910 46
2009-12-11 08:34:53 51°12.285 2°48.56 3.3 30 10.2 102910 46
2009-12-11 08:34:58 51°12.284 2°48.552 4.1 27 10.2 102910 43
2009-12-11 08:35:03 51°12.281 2°48.546 6 29 10.2 102910 43
2009-12-11 08:35:08 51°12.279 2°48.538 5.7 33 10.2 102920 46
2009-12-11 08:35:13 51°12.277 2°48.531 6.2 28 10.2 102920 46
2009-12-11 08:35:18 51°12.275 2°48.523 6 30 10.2 102920 41
2009-12-11 08:35:24 51°12.273 2°48.514 4.1 25 10.2 102920 41
2009-12-11 08:35:28 51°12.271 2°48.508 5.2 28 10.2 102920 43
2009-12-11 08:35:33 51°12.269 2°48.501 5.6 31 10.2 102920 43
2009-12-11 08:35:38 51°12.267 2°48.494 5.2 30 10.2 102920 46
2009-12-11 08:35:44 51°12.264 2°48.485 5.8 28 10.2 102920 46
2009-12-11 08:35:48 51°12.263 2°48.479 5.2 25 10.2 102920 43
2009-12-11 08:35:53 51°12.261 2°48.471 4.7 32 10.2 102920 43
2009-12-11 08:35:58 51°12.258 2°48.464 6.3 33 10.2 102920 41
2009-12-11 08:36:04 51°12.256 2°48.455 5.8 31 10.2 102920 41
2009-12-11 08:36:08 51°12.255 2°48.449 6.1 27 10.2 102910 41
2009-12-11 08:36:13 51°12.253 2°48.442 4.6 22 10.2 102910 41
2009-12-11 08:36:18 51°12.251 2°48.435 6.2 30 10.2 102910 42
2009-12-11 08:36:23 51°12.249 2°48.427 5.8 32 10.2 102910 42
2009-12-11 08:36:28 51°12.247 2°48.42 5.4 26 10.2 102910 42
2009-12-11 08:36:34 51°12.245 2°48.41 5.6 24 10.2 102910 42
2009-12-11 08:36:38 51°12.244 2°48.405 5.8 24 10.2 102910 41
2009-12-11 08:36:43 51°12.243 2°48.396 5.6 24 10.2 102910 41
2009-12-11 08:36:48 51°12.242 2°48.389 6.6 22 10.2 102910 45
2009-12-11 08:36:54 51°12.241 2°48.379 7.1 20 10.2 102910 45
2009-12-11 08:36:58 51°12.241 2°48.373 7.5 21 10.2 102920 44
2009-12-11 08:37:03 51°12.242 2°48.365 5.3 21 10.2 102920 44
2009-12-11 08:37:08 51°12.242 2°48.358 7.7 18 10.2 102920 41
2009-12-11 08:37:13 51°12.242 2°48.35 6.7 20 10.2 102920 41
2009-12-11 08:37:18 51°12.243 2°48.342 6.3 20 10.2 102910 41
2009-12-11 08:37:23 51°12.243 2°48.335 7 19 10.2 102910 41
2009-12-11 08:37:28 51°12.244 2°48.327 7.5 19 10.2 102910 45
2009-12-11 08:37:33 51°12.245 2°48.32 5.8 17 10.2 102910 45
2009-12-11 08:37:38 51°12.246 2°48.312 7.6 18 10.2 102910 42
2009-12-11 08:37:44 51°12.247 2°48.303 7.9 20 10.2 102910 42
2009-12-11 08:37:48 51°12.249 2°48.297 7.6 18 10.2 102920 41
2009-12-11 08:37:53 51°12.25 2°48.289 7.9 16 10.2 102920 41
2009-12-11 08:37:58 51°12.252 2°48.282 7.3 15 10.2 102910 45
2009-12-11 08:38:03 51°12.253 2°48.274 7.8 17 10.2 102910 45
2009-12-11 08:38:09 51°12.255 2°48.266 8.7 12 10.2 102910 43
2009-12-11 08:38:13 51°12.257 2°48.26 8.2 13 10.2 102910 43
2009-12-11 08:38:18 51°12.258 2°48.253 10.2 12 10.2 102910 43
2009-12-11 08:38:23 51°12.26 2°48.247 8.9 9 10.2 102910 43
2009-12-11 08:38:29 51°12.262 2°48.239 9.2 15 10.2 102910 43
2009-12-11 08:38:33 51°12.264 2°48.234 9.2 11 10.2 102910 43
2009-12-11 08:38:38 51°12.266 2°48.228 9.5 9 10.2 102910 43
2009-12-11 08:38:43 51°12.268 2°48.221 9.7 8 10.2 102910 43
2009-12-11 08:38:49 51°12.271 2°48.214 10.3 8 10.2 102900 41
2009-12-11 08:38:53 51°12.272 2°48.209 10.6 11 10.2 102900 41
2009-12-11 08:38:58 51°12.275 2°48.203 10.4 9 10.2 102900 41
2009-12-11 08:39:03 51°12.277 2°48.198 9.2 11 10.2 102900 41
2009-12-11 08:39:08 51°12.279 2°48.192 10.5 7 10.2 102910 44
2009-12-11 08:39:14 51°12.282 2°48.185 9.9 9 10.2 102910 44
2009-12-11 08:39:18 51°12.284 2°48.181 10.4 9 10.2 102900 43
2009-12-11 08:39:23 51°12.287 2°48.176 10.6 9 10.2 102900 43
2009-12-11 08:39:28 51°12.289 2°48.171 10.7 10 10.2 102900 42
2009-12-11 08:39:34 51°12.293 2°48.165 7.9 6 10.2 102900 42
2009-12-11 08:39:38 51°12.294 2°48.161 7.7 10 10.2 102900 42
2009-12-11 08:39:43 51°12.297 2°48.156 6.1 2 10.2 102900 42
2009-12-11 08:39:49 51°12.3 2°48.15 7.7 2 10.2 102900 42
2009-12-11 08:39:53 51°12.303 2°48.146 9 5 10.2 102900 42
2009-12-11 08:39:58 51°12.305 2°48.142 9 3 10.2 102910 41
2009-12-11 08:40:03 51°12.308 2°48.138 9.7 -999 10.2 102910 41
2009-12-11 08:40:09 51°12.312 2°48.132 9.4 2 10.2 102910 41
2009-12-11 08:40:13 51°12.313 2°48.128 9.7 4 10.2 102910 41
2009-12-11 08:40:18 51°12.316 2°48.124 7.4 5 10.2 102920 42
2009-12-11 08:40:23 51°12.318 2°48.12 8.8 2 10.2 102920 42
2009-12-11 08:40:29 51°12.321 2°48.117 8.8 3 10.2 102900 45
2009-12-11 08:40:33 51°12.323 2°48.114 9.9 5 10.2 102900 45
2009-12-11 08:40:38 51°12.324 2°48.112 9.3 6 10.2 102900 43
2009-12-11 08:40:43 51°12.327 2°48.11 9.1 7 10.2 102900 43
2009-12-11 08:40:49 51°12.329 2°48.108 7.9 3 10.2 102900 43
2009-12-11 08:40:53 51°12.33 2°48.106 9.1 3 10.2 102900 43
2009-12-11 08:40:58 51°12.332 2°48.105 8.6 6 10.2 102910 41
2009-12-11 08:41:03 51°12.333 2°48.104 7.8 6 10.2 102910 41
2009-12-11 08:41:08 51°12.335 2°48.102 7.6 5 10.2 102910 45
2009-12-11 08:41:13 51°12.336 2°48.101 8.4 5 10.2 102910 45
2009-12-11 08:41:18 51°12.337 2°48.1 10 7 10.2 102900 42
2009-12-11 08:41:23 51°12.339 2°48.099 7.3 6 10.2 102900 42
2009-12-11 08:41:28 51°12.339 2°48.099 10.7 8 10.2 102910 43
2009-12-11 08:41:33 51°12.34 2°48.098 11.4 11 10.2 102910 43
2009-12-11 08:41:38 51°12.341 2°48.098 9.5 8 10.2 102900 42
2009-12-11 08:41:43 51°12.342 2°48.098 9 6 10.2 102900 42
2009-12-11 08:41:48 51°12.343 2°48.098 8.9 5 10.2 102900 44
2009-12-11 08:41:53 51°12.344 2°48.099 7.3 4 10.2 102900 44
2009-12-11 08:41:58 51°12.344 2°48.099 6.9 7 10.2 102900 41
2009-12-11 08:42:03 51°12.345 2°48.099 8.6 7 10.2 102900 41
2009-12-11 08:42:08 51°12.345 2°48.099 9.6 4 10.2 102910 41
2009-12-11 08:42:13 51°12.346 2°48.1 7.7 10 10.2 102910 41
2009-12-11 08:42:18 51°12.346 2°48.101 7.1 9 10.2 102900 41
2009-12-11 08:42:23 51°12.346 2°48.101 6.5 7 10.2 102900 41
2009-12-11 08:42:28 51°12.347 2°48.102 6.8 6 10.2 102920 44
2009-12-11 08:42:33 51°12.347 2°48.102 7.9 13 10.2 102920 44
2009-12-11 08:42:38 51°12.347 2°48.103 9.5 6 10.3 102920 44
2009-12-11 08:42:43 51°12.348 2°48.105 10.5 9 10.3 102920 44
2009-12-11 08:42:49 51°12.348 2°48.105 9.6 9 10.3 102920 44
2009-12-11 08:42:53 51°12.348 2°48.106 9.4 7 10.3 102920 44
2009-12-11 08:42:58 51°12.348 2°48.106 9.6 11 10.3 102920 42
2009-12-11 08:43:03 51°12.349 2°48.106 8.6 12 10.3 102920 42
2009-12-11 08:43:09 51°12.349 2°48.105 10.1 15 10.2 102910 41
2009-12-11 08:43:13 51°12.35 2°48.104 10.9 16 10.2 102910 41
2009-12-11 08:43:18 51°12.35 2°48.101 10.3 17 10.2 102910 41
2009-12-11 08:43:24 51°12.351 2°48.098 10.9 20 10.2 102910 41
2009-12-11 08:43:28 51°12.351 2°48.096 10.5 25 10.2 102920 42
2009-12-11 08:43:33 51°12.352 2°48.093 10.2 24 10.2 102920 42
2009-12-11 08:43:38 51°12.351 2°48.089 9.9 27 10.2 102910 43
2009-12-11 08:43:44 51°12.351 2°48.083 10.2 28 10.2 102910 43
2009-12-11 08:43:48 51°12.35 2°48.079 9.2 31 10.2 102910 42
2009-12-11 08:43:53 51°12.349 2°48.073 8.6 27 10.2 102910 42
2009-12-11 08:43:58 51°12.347 2°48.066 8 31 10.2 102910 43
2009-12-11 08:44:04 51°12.345 2°48.056 7.3 26 10.2 102910 43
2009-12-11 08:44:09 51°12.342 2°48.046 6.7 28 10.2 102910 44
2009-12-11 08:44:13 51°12.341 2°48.037 6.6 25 10.2 102910 44
2009-12-11 08:44:18 51°12.338 2°48.026 7.6 20 10.2 102920 41
2009-12-11 08:44:24 51°12.335 2°48.011 8.1 23 10.2 102920 41
2009-12-11 08:44:28 51°12.333 2°48.001 8.1 21 10.2 102920 42
2009-12-11 08:44:33 51°12.33 2°47.987 8.4 23 10.2 102920 42
2009-12-11 08:44:38 51°12.327 2°47.973 9.4 21 10.2 102930 43
2009-12-11 08:44:44 51°12.324 2°47.955 7.5 20 10.2 102930 43